CUBEBUG-2 (LO-74)

Last updated on Tue Jul 01 2025 00:03:06 GMT+0000 (Coordinated Universal Time)

1 39440U 13066AA 25181.42885340 .00001957 00000+0 20120-3 0 9996 2 39440 97.8500 125.8465 0063413 110.7142 250.0887 14.90039912624544
UTC large
Height (km)
Speed (km/s)
/
Latitude / Longitude
Inclination (degrees)
Orbital Period (minutes)
Azimuth
Elevation
Range (km)
Doppler Factor

Next 0 passes for location: London (51.5072 / 0.1276)

Sorry there are no passes over London.